This is the latest recevied weather packets stored in our database for station/object WE1C. If no packets are shown the sender has not sent any weather packets the latest 10 day(s).
| Time | Temp. | Humidity | Pressure | Rain* | Wind** | Luminosity | Snow |
|---|---|---|---|---|---|---|---|
| 1787765997 | 23.89° C | 72% | 1046.6 hPa | 0 mm | - | 308 W/m² | - |
| 1787765694 | 24.44° C | 67% | 1046.8 hPa | 0 mm | - | 397 W/m² | - |
| 1787765390 | 23.89° C | 69% | 1046.6 hPa | 0 mm | - | 720 W/m² | - |
| 1787765089 | 25° C | 66% | 1046.6 hPa | 0 mm | - | 134 W/m² | - |
| 1787764783 | 25° C | 68% | 1046.7 hPa | 0 mm | - | 712 W/m² | - |
| 1787764479 | 25° C | 66% | 1046.7 hPa | 0 mm | - | 712 W/m² | - |
| 1787764175 | 25° C | 67% | 1046.8 hPa | 0 mm | - | 760 W/m² | - |
| 1787763870 | 25° C | 69% | 1046.7 hPa | 0 mm | - | 806 W/m² | - |
| 1787763565 | 24.44° C | 70% | 1046.7 hPa | 0 mm | - | 772 W/m² | - |
| 1787763255 | 22.78° C | 70% | 1046.9 hPa | 0 mm | - | 739 W/m² | - |
| 1787762955 | 22.78° C | 73% | 1047.1 hPa | 0 mm | - | 223 W/m² | - |
| 1787762649 | 23.33° C | 72% | 1046.8 hPa | 0 mm | - | 175 W/m² | - |
| 1787762346 | 23.89° C | 71% | 1046.8 hPa | 0 mm | - | 178 W/m² | - |
| 1787762040 | 25° C | 72% | 1046.8 hPa | 0 mm | - | 824 W/m² | - |
| 1787761740 | 25° C | 67% | 1047 hPa | 0 mm | - | 827 W/m² | - |
| 1787761435 | 25° C | 66% | 1046.9 hPa | 0 mm | - | 800 W/m² | - |
| 1787761130 | 25° C | 63% | 1046.9 hPa | 0 mm | - | 794 W/m² | - |
| 1787760829 | 24.44° C | 65% | 1046.8 hPa | 0 mm | - | 802 W/m² | - |
| 1787760527 | 24.44° C | 67% | 1046.9 hPa | 0 mm | - | 775 W/m² | - |
| 1787760222 | 24.44° C | 65% | 1047 hPa | 0 mm | - | 766 W/m² | - |
* Rain latest hour (hover to see other rain measurements)
** Current wind speed in m/s (hover to see current wind gust speed)